| time (UTC) | temp F | wind direction | speed MPH | gust MPH | rain 1hr in | rain 24hr in | rain mn in | humidity % | barometer mb |
| 20260506123704 | 67 | 11 | 2.0 | 3.0 | 0.00 | 0.50 | 0.50 | 78 | 1003.6 |
| 20260506123204 | 67 | 11 | 2.0 | 6.0 | 0.00 | 0.50 | 0.50 | 79 | 1003.6 |
| 20260506121705 | 66 | 11 | 1.0 | 5.0 | 0.00 | 0.50 | 0.50 | 81 | 1003.6 |
| 20260506120205 | 64 | 11 | 0.0 | 5.0 | 0.00 | 0.50 | 0.50 | 87 | 1003.6 |
| 20260506113704 | 63 | 11 | 1.0 | 2.0 | 0.00 | 0.50 | 0.50 | 87 | 1003.6 |
| 20260506111704 | 63 | 11 | 2.0 | 5.0 | 0.03 | 0.50 | 0.50 | 91 | 1004.1 |
| 20260506111205 | 63 | 11 | 2.0 | 3.0 | 0.03 | 0.50 | 0.50 | 92 | 1004.1 |
| 20260506110204 | 63 | 11 | 1.0 | 5.0 | 0.04 | 0.50 | 0.50 | 92 | 1004.1 |
| 20260506104205 | 62 | 10 | 2.0 | 3.0 | 0.08 | 0.50 | 0.50 | 94 | 1004.1 |
| 20260506103704 | 62 | 11 | 1.0 | 3.0 | 0.08 | 0.50 | 0.50 | 94 | 1003.9 |
| 20260506103204 | 61 | 11 | 1.0 | 3.0 | 0.07 | 0.49 | 0.49 | 92 | 1003.9 |
| 20260506101704 | 62 | 11 | 0.0 | 0.0 | 0.05 | 0.47 | 0.47 | 92 | 1003.9 |
| 20260506100705 | 62 | 11 | 0.0 | 0.0 | 0.05 | 0.47 | 0.47 | 92 | 1003.9 |
| 20260506093705 | 61 | 11 | 0.0 | 2.0 | 0.00 | 0.42 | 0.42 | 93 | 1003.7 |
| 20260506091204 | 61 | 11 | 0.0 | 2.0 | 0.00 | 0.42 | 0.42 | 94 | 1003.5 |
| 20260506090204 | 61 | 11 | 1.0 | 3.0 | 0.00 | 0.42 | 0.42 | 96 | 1003.5 |
| 20260506083704 | 60 | 5 | 0.0 | 3.0 | 0.00 | 0.44 | 0.42 | 96 | 1003.3 |
| 20260506081204 | 59 | 5 | 2.0 | 3.0 | 0.00 | 0.54 | 0.42 | 98 | 1003.4 |
| 20260506080704 | 59 | 5 | 1.0 | 3.0 | 0.00 | 0.57 | 0.42 | 98 | 1003.4 |
| 20260506070704 | 57 | 5 | 0.0 | 1.0 | 0.01 | 1.01 | 0.42 | 99 | 1004.2 |
| 20260506070204 | 57 | 5 | 0.0 | 6.0 | 0.01 | 1.03 | 0.42 | 99 | 1004.2 |
| 20260506061704 | 56 | 5 | 0.0 | 0.0 | 0.05 | 1.20 | 0.42 | 98 | 1004.2 |
| 20260506061204 | 55 | 5 | 0.0 | 1.0 | 0.05 | 1.20 | 0.41 | 98 | 1004.2 |
| 20260506050704 | 55 | 5 | 0.0 | 2.0 | 0.09 | 1.29 | 0.36 | 97 | 1004.7 |
| 20260506044704 | 55 | 5 | 0.0 | 1.0 | 0.11 | 1.29 | 0.36 | 97 | 1004.7 |
| 20260506044204 | 55 | 5 | 0.0 | 0.0 | 0.10 | 1.28 | 0.35 | 97 | 1004.7 |
| 20260506043703 | 55 | 5 | 0.0 | 1.0 | 0.10 | 1.28 | 0.35 | 97 | 1004.7 |
| 20260506040704 | 55 | 5 | 0.0 | 0.0 | 0.03 | 1.21 | 0.27 | 97 | 1004.5 |
| 20260506040204 | 55 | 5 | 0.0 | 0.0 | 0.02 | 1.20 | 0.26 | 97 | 1004.5 |
| 20260506034705 | 55 | 5 | 0.0 | 0.0 | 0.01 | 1.20 | 0.25 | 97 | 1004.5 |
| 20260506034204 | 55 | 5 | 0.0 | 0.0 | 0.01 | 1.20 | 0.25 | 97 | 1004.5 |
| 20260506033204 | 55 | 5 | 0.0 | 0.0 | 0.02 | 1.21 | 0.25 | 97 | 1004.6 |
| 20260506030204 | 55 | 5 | 0.0 | 1.0 | 0.06 | 1.20 | 0.24 | 97 | 1004.6 |
| 20260506024704 | 55 | 5 | 0.0 | 1.0 | 0.08 | 1.20 | 0.24 | 97 | 1004.6 |
| 20260506023204 | 56 | 5 | 0.0 | 0.0 | 0.09 | 1.19 | 0.23 | 97 | 1004.6 |
| 20260506021204 | 56 | 5 | 0.0 | 3.0 | 0.07 | 1.17 | 0.21 | 96 | 1004.9 |
| 20260506020204 | 56 | 5 | 0.0 | 1.0 | 0.04 | 1.14 | 0.18 | 96 | 1004.9 |
| 20260506013704 | 56 | 5 | 0.0 | 2.0 | 0.10 | 1.11 | 0.15 | 96 | 1005.5 |
| 20260506013204 | 56 | 5 | 0.0 | 3.0 | 0.09 | 1.10 | 0.14 | 96 | 1005.5 |
| 20260506010704 | 57 | 5 | 0.0 | 0.0 | 0.14 | 1.10 | 0.14 | 96 | 1006.3 |
| 20260506004704 | 57 | 5 | 2.0 | 3.0 | 0.07 | 1.03 | 0.07 | 96 | 1006.3 |
| 20260506003204 | 58 | 5 | 0.0 | 0.0 | 0.05 | 1.01 | 0.05 | 96 | 1006.3 |
| 20260506000704 | 58 | 5 | 0.0 | 0.0 | 0.00 | 0.96 | 0.00 | 96 | 1006.4 |
| 20260506000205 | 58 | 5 | 0.0 | 7.0 | 0.00 | 0.96 | 0.00 | 96 | 1006.4 |
| 20260505234704 | 57 | 5 | 0.0 | 1.0 | 0.00 | 0.96 | 0.00 | 96 | 1006.4 |
| 20260505234204 | 57 | 5 | 0.0 | 1.0 | 0.00 | 0.96 | 0.00 | 96 | 1006.4 |
| 20260505224703 | 58 | 5 | 0.0 | 0.0 | 0.00 | 0.96 | 0.00 | 95 | 1006.9 |
| 20260505223704 | 58 | 5 | 0.0 | 0.0 | 0.00 | 0.96 | 0.00 | 95 | 1006.9 |
| 20260505221704 | 58 | 5 | 1.0 | 3.0 | 0.00 | 0.96 | 0.00 | 95 | 1007.0 |
| 20260505220704 | 58 | 5 | 0.0 | 3.0 | 0.00 | 0.96 | 0.00 | 95 | 1007.0 |
| 20260505214204 | 58 | 5 | 0.0 | 0.0 | 0.00 | 0.96 | 0.96 | 94 | 1007.3 |
| 20260505211204 | 58 | 5 | 0.0 | 3.0 | 0.00 | 0.96 | 0.96 | 93 | 1007.5 |
| 20260505210704 | 58 | 5 | 0.0 | 3.0 | 0.00 | 0.96 | 0.96 | 93 | 1007.4 |
| 20260505210204 | 59 | 5 | 1.0 | 3.0 | 0.00 | 0.96 | 0.96 | 93 | 1007.4 |
| 20260505204203 | 59 | 5 | 0.0 | 2.0 | 0.00 | 0.96 | 0.96 | 92 | 1007.4 |
| 20260505203703 | 59 | 5 | 0.0 | 0.0 | 0.00 | 0.96 | 0.96 | 92 | 1007.4 |
| 20260505201704 | 60 | 5 | 1.0 | 3.0 | 0.00 | 0.96 | 0.96 | 92 | 1007.4 |
| 20260505194703 | 60 | 11 | 0.0 | 3.0 | 0.00 | 0.96 | 0.96 | 91 | 1007.4 |
| 20260505193703 | 61 | 11 | 0.0 | 3.0 | 0.00 | 0.96 | 0.96 | 91 | 1007.0 |
| 20260505191203 | 61 | 11 | 0.0 | 0.0 | 0.00 | 0.96 | 0.96 | 88 | 1007.0 |
| 20260505190703 | 61 | 11 | 0.0 | 1.0 | 0.00 | 0.96 | 0.96 | 88 | 1006.8 |
| 20260505184704 | 62 | 11 | 0.0 | 0.0 | 0.00 | 0.96 | 0.96 | 87 | 1006.8 |
| 20260505184203 | 62 | 11 | 0.0 | 0.0 | 0.00 | 0.96 | 0.96 | 87 | 1006.8 |
| 20260505181704 | 63 | 11 | 0.0 | 0.0 | 0.00 | 0.96 | 0.96 | 85 | 1006.6 |
| 20260505181203 | 63 | 11 | 0.0 | 0.0 | 0.00 | 0.96 | 0.96 | 84 | 1006.6 |
| 20260505180205 | 64 | 11 | 0.0 | 0.0 | 0.00 | 0.96 | 0.96 | 84 | 1006.6 |
| 20260505174705 | 64 | 11 | 0.0 | 1.0 | 0.00 | 0.96 | 0.96 | 82 | 1006.5 |
| 20260505174205 | 64 | 11 | 0.0 | 3.0 | 0.00 | 0.96 | 0.96 | 82 | 1006.4 |
| 20260505173705 | 64 | 11 | 0.0 | 0.0 | 0.00 | 0.96 | 0.96 | 82 | 1006.4 |
| 20260505171705 | 64 | 11 | 1.0 | 3.0 | 0.00 | 0.96 | 0.96 | 82 | 1006.4 |
| 20260505171205 | 64 | 11 | 2.0 | 3.0 | 0.00 | 0.96 | 0.96 | 82 | 1006.4 |
| 20260505164705 | 65 | 11 | 2.0 | 3.0 | 0.00 | 0.96 | 0.96 | 81 | 1006.4 |
| 20260505164205 | 65 | 11 | 0.0 | 2.0 | 0.00 | 0.96 | 0.96 | 80 | 1006.4 |
| 20260505163205 | 65 | 11 | 0.0 | 3.0 | 0.00 | 0.96 | 0.96 | 79 | 1006.4 |
| 20260505161205 | 66 | 11 | 2.0 | 6.0 | 0.00 | 0.96 | 0.96 | 79 | 1006.4 |
| 20260505160204 | 66 | 11 | 1.0 | 3.0 | 0.00 | 0.96 | 0.96 | 77 | 1006.4 |
| 20260505153205 | 64 | 11 | 0.0 | 3.0 | 0.00 | 0.96 | 0.96 | 81 | 1006.8 |
| 20260505151205 | 63 | 11 | 0.0 | 3.0 | 0.00 | 0.96 | 0.96 | 84 | 1006.8 |
| 20260505150205 | 63 | 9 | 1.0 | 3.0 | 0.00 | 0.96 | 0.96 | 85 | 1006.8 |
| 20260505130205 | 60 | 5 | 1.0 | 3.0 | 0.00 | 0.96 | 0.96 | 93 | 1007.3 |
| 20260505124705 | 60 | 5 | 1.0 | 3.0 | 0.00 | 0.96 | 0.96 | 95 | 1007.3 |
| 20260505124205 | 60 | 5 | 1.0 | 3.0 | 0.00 | 0.96 | 0.96 | 96 | 1007.3 |